#timestamp,LO_Frequency,Hit,StdDev 
1628233215.7,286046995.3,Y
1628233235.5,286046996.5,P
1628233255.4,286046999.1,N
1628233275.2,286046996.5,P
1628233295.0,286046999.5,N
1628233296.0,286046999.5,N
1628233315.8,286046998.3,N
1628233335.6,286046998.8,N
1628233355.5,286047001.1,N
1628233375.3,286047000.7,N
1628233395.1,286047001.1,N
1628233415.9,286047000.5,N
1628233435.7,286047000.0,N
1628233455.5,286047000.7,N
1628233475.4,286046998.4,N
1628233495.2,286046999.0,N
1628233515.1,286046998.7,N
1628233516.0,286046998.7,N
1628233535.8,286046999.2,N
1628233555.6,286046997.1,N
1628233575.5,286046998.7,N
1628233595.3,286047000.7,N
1628233615.1,286046999.8,N
1628233635.9,286047000.2,N
1628233655.7,286047000.9,N
1628233675.6,286046999.9,N
1628233695.4,286046999.7,N
1628233715.2,286047002.3,N
1628233735.1,286046999.7,N
1628233736.0,286046999.7,N
1628233755.8,286046999.9,N
1628233775.6,286046999.7,N
1628233795.5,286047000.1,N
1628233815.3,286047001.9,N
1628233835.2,286047000.3,N
1628233855.9,286046998.1,N
1628233875.7,286047000.1,N
1628233895.6,286047002.8,N
1628233915.4,286047000.9,N
1628233935.2,286046998.4,N
1628233955.1,286047001.2,N
1628233956.0,286047001.2,N
1628233975.8,286047000.9,N
1628233995.7,286047000.6,N
1628234015.5,286047000.5,N
1628234035.3,286047000.4,N
1628234055.2,286047000.3,N
1628234075.0,286046998.2,N
1628234075.9,286046998.2,N
1628234095.7,286047001.1,N
1628234115.6,286047001.1,N
1628234135.4,286046998.6,N
1628234155.3,286047000.7,N
1628234175.1,286047001.0,N
1628234176.0,286047001.0,N
1628234195.8,286047000.3,N
1628234215.7,286047000.1,N
1628234235.5,286047002.1,N
1628234255.3,286047001.7,N
1628234275.2,286047002.0,N
1628234295.0,286047001.7,N
1628234295.9,286047001.7,N
1628234315.8,286047003.7,Y
1628234335.6,286047003.6,P
1628234355.4,286047004.3,N
1628234375.3,286047004.3,N
1628234395.1,286047001.7,N
1628234415.9,286047001.3,N
1628234435.7,286047004.1,N
1628234455.5,286047003.6,N
1628234475.4,286047003.4,N
1628234495.2,286047004.1,Y
1628234515.0,286047000.5,P
1628234515.9,286047000.5,N
1628234535.8,286047000.8,N
1628234555.6,286046998.2,N
1628234575.5,286046998.3,N
1628234595.3,286046998.8,N
1628234615.1,286046999.4,N
1628234635.9,286046998.4,N
1628234655.7,286046998.1,N
1628234675.6,286046998.5,N
1628234695.4,286046998.2,N
1628234715.2,286046998.9,N
1628234735.1,286046996.5,N
1628234736.0,286046996.5,N
1628234755.8,286046996.5,N
1628234775.6,286046996.9,N
1628234795.5,286046999.0,N
1628234815.3,286046998.9,N
1628234835.2,286047000.8,N
1628234855.9,286047000.8,N
1628234875.7,286046998.1,N
1628234895.6,286046998.7,N
1628234915.4,286046997.2,N
1628234935.2,286046997.6,N
1628234955.1,286046997.0,N
1628234956.0,286046997.0,N
1628234975.8,286046999.2,N
1628234995.7,286046998.4,N
1628235015.5,286047001.1,N
1628235035.3,286046998.6,N
1628235055.2,286046998.3,N
1628235075.0,286046999.1,N
1628235075.9,286046999.1,N
1628235095.8,286046998.2,N
1628235115.6,286046998.6,N
1628235135.4,286046998.8,N
1628235155.3,286046997.1,N
1628235175.1,286046997.3,N
1628235195.8,286046996.9,N
1628235215.7,286046999.5,N
1628235235.5,286046997.3,N
1628235255.4,286046995.1,Y
1628235275.2,286046999.4,P
1628235295.0,286046999.7,N
1628235296.0,286046999.7,N
1628235315.8,286047005.7,Y
1628235335.6,286047006.8,P
1628235355.5,286047008.4,N
1628235375.3,286047008.0,N
1628235395.1,286047009.4,N
1628235415.9,286047010.7,N
1628235435.7,286047010.5,N
1628235455.6,286047010.6,N
1628235475.4,286047012.4,Y
1628235495.2,286047001.6,P
1628235515.1,286047004.0,N
1628235516.0,286047004.0,N
1628235535.8,286047001.8,N
1628235555.7,286046999.7,N
1628235575.5,286047001.1,N
1628235595.3,286047001.2,N
1628235615.2,286047000.7,N
1628235635.0,286047000.3,N
1628235635.9,286047000.3,N
1628235655.8,286047000.9,N
1628235675.6,286046998.1,N
1628235695.4,286046998.1,N
1628235715.3,286047000.6,N
1628235735.1,286047004.4,N
1628235755.8,286047003.5,N
1628235775.7,286047004.7,N
1628235795.5,286047005.1,N
1628235815.4,286047005.0,N
1628235835.2,286047005.0,N
1628235855.0,286047007.0,N
1628235855.9,286047007.0,N
1628235875.8,286047004.9,N
1628235895.6,286047005.2,N
1628235915.5,286047003.5,N
1628235935.3,286047005.4,N
1628235955.2,286047004.7,N
1628235975.9,286047004.2,N
1628235995.7,286047002.0,N
1628236015.6,286047001.8,N
1628236035.4,286047002.5,N
1628236055.3,286046999.7,N
1628236075.1,286046998.2,N
1628236076.0,286046998.2,N
1628236095.8,286046998.1,N
1628236115.7,286047000.3,N
1628236135.5,286047004.4,N
1628236155.3,286047002.5,N
1628236175.2,286047001.0,N
1628236195.0,286046998.3,N
1628236195.9,286046998.3,N
1628236215.8,286046999.3,N
1628236235.6,286047000.0,N
1628236255.4,286047002.0,N
1628236275.3,286047004.3,N
1628236295.1,286047003.9,N
1628236315.8,286047001.7,N
1628236335.7,286047002.3,N
1628236355.5,286047002.7,N
1628236375.4,286047002.5,N
1628236395.2,286047001.6,N
1628236415.0,286047002.8,N
1628236415.9,286047002.8,N
1628236435.8,286047000.8,N
1628236455.6,286046996.9,N
1628236475.4,286046996.9,N
1628236495.3,286046998.0,N
1628236515.1,286046996.7,N
1628236535.9,286046997.6,N
1628236555.7,286046994.9,N
1628236575.5,286046995.4,N
1628236595.4,286046997.6,N
1628236615.2,286046996.2,N
1628236635.0,286046996.2,N
1628236636.0,286046996.2,N
1628236655.8,286046995.6,N
1628236675.6,286046995.9,N
1628236695.5,286046995.9,N
1628236715.3,286046994.9,N
1628236735.1,286046995.2,N
1628236755.9,286046993.3,N
1628236775.7,286046996.4,N
1628236795.5,286046994.0,N
